Regional Weather Roundup
Issued by NWS

Home | Current Version | Previous Version | Graphics & Text | Print | Product List | Glossary On
Versions: 1 2 3 4 5 6 7 8 9 10 11 12 13 14 15 16 17 18 19 20 21 22 23 24 25 26 27 28 29 30 31 32 33 34 35 36 37 38 39 40 41 42 43 44 45 46 47 48 49 50
038
ASUS45 KBOU 241610
RWRCO

WEATHER ROUNDUP FOR COLORADO
NATIONAL WEATHER SERVICE DENVER/BOULDER CO
900 AM MST SAT FEB 24 2018

NOTE: "FAIR" INDICATES FEW OR NO CLOUDS BELOW 12000 FEET WITH NO
SIGNIFICANT WEATHER AND/OR OBSTRUCTIONS TO VISIBILITY.

COZ001>005-013-030-031-241700-
...NORTHWEST COLORADO...

CITY           SKY/WX    TMP DP  RH WIND       PRES   REMARKS
CRAIG          CLOUDY     8   2  76 W5        30.00S WCI   0
HAYDEN         FAIR      14   5  67 W5        29.98S WCI   6
MEEKER         CLOUDY    16   5  62 W6        30.00R WCI   7
RANGELY        CLOUDY    18   5  56 S7        30.06S WCI   9
RABBIT EARS PA FOG       -4  -8  84 MISG      29.70S VSB 1/2
STEAMBOAT SPGS FAIR       7   2  81 CALM      29.95R
WALDEN         FAIR      12  -8  40 SW13G18   29.82F WCI  -3
$$

COZ006>008-011-241700-
...WEST CENTRAL VALLEYS...

CITY           SKY/WX    TMP DP  RH WIND       PRES   REMARKS
GRAND JUNCTION FAIR      24  13  62 N12       30.09R WCI  13
MONTROSE       FAIR      17   8  67 SE7       30.10R WCI   8
EAGLE          CLOUDY    20   6  55 W16       29.97S WCI   6
RIFLE          CLOUDY    20  14  77 W12       30.04R WCI   8
DELTA          FAIR      27  11  50 SW14      30.08R WCI  16
NUCLA          FAIR      18  14  86 E6        30.12R WCI   9
$$

COZ017>023-064>068-241700-
...SOUTHWEST COLORADO...

CITY           SKY/WX    TMP DP  RH WIND       PRES   REMARKS
DURANGO        FAIR      20   7  57 W8        30.00R WCI  10
CORTEZ         FAIR      18  12  77 CALM      30.10R
PAGOSA SPRINGS FAIR      17  10  75 CALM      29.95S
TELLURIDE      LGT SNOW   8   6  89 CALM      29.96R
WOLF CREEK PAS CLOUDY    -2  -4  92 SW10G22   29.79S WCI -19
$$

COZ009-010-012-014-032>034-037-058>063-241700-
...CENTRAL COLORADO...

CITY           SKY/WX    TMP DP  RH WIND       PRES   REMARKS
ASPEN          LGT SNOW  14   8  77 CALM      29.89S VSB 1
BUENA VISTA    FAIR      20  -8  28 W25G37    29.78F WCI   3
COPPER MTN     CLOUDY     0  -8  71 W21G30    29.65R WCI -23
BERTHOUD PASS  HVY SNOW -11 -22  58 MISG      29.48F VSB<1/4
COTTONWOOD PAS CLOUDY    16   0  48 W25G40    29.70F WCI  -3
GUNNISON       FAIR      17   4  56 W18G24    29.91R WCI   1
GRANBY         CLOUDY     9  -2  62 SW6       29.86S WCI  -1
KREMMLING      CLOUDY    19   0  42 NW6G18    29.92R WCI  11
LEADVILLE      LGT SNOW   5  -4  66 NW8G25    29.75S WCI  -8
MONARCH PASS   CLOUDY    -2  -8  78 W41G52    29.75R WCI -32
SALIDA         FAIR      22  -1  35 W24G38    29.90R WCI   6
SUNLIGHT       LGT SNOW N/A N/A N/A SW8G16    29.80F VSB 3/4
WILKERSON PASS FAIR       3  -9  55 W14G28    29.64S WCI -15
$$

COZ069>075-241700-
...SAN LUIS VALLEY/SANGRE DE CRISTO MOUNTAINS...

CITY           SKY/WX    TMP DP  RH WIND       PRES   REMARKS
ALAMOSA        FAIR      24  -8  24 W20       29.87R WCI  10
DEL NORTE      FAIR      19  -6  32 W16       29.88R WCI   5
LA VETA PASS   FAIR      12  -4  48 W16G31    29.83S WCI  -4
SAGUACHE       FAIR      19   0  42 NW24G33   29.86S WCI   2
$$

COZ035-036-038>040-241700-
...NORTHERN COLORADO FRONT RANGE...

CITY           SKY/WX    TMP DP  RH WIND       PRES   REMARKS
DENVER INTL AP FAIR      28   5  37 W20G31    29.76F WCI  15
AURORA         MOSUNNY   27   2  34 W24G33    29.77F WCI  12
FRONT RANGE AP MOSUNNY   30   7  37 W14G38    29.78F WCI  20
ERIE MUNI ARPT FAIR      27   4  37 W7        29.84F WCI  20
BOULDER MUN AP FAIR      28   3  34 S3        29.78F
CENTENNIAL     FAIR      25   6  44 NW14      29.77F WCI  13
BROOMFIELD     MOSUNNY   27   1  33 W31       29.78F WCI  10
FORT COLLINS   FAIR      16  14  92 SE7       29.78F WCI   6
LONGMONT       FAIR      29   7  39 W10       29.79F WCI  20
$$

COZ041-046-047-076>085-087-088-241700-
...PIKES PEAK/PALMER DIVIDE AND SOUTHERN FOOTHILLS...

CITY           SKY/WX    TMP DP  RH WIND       PRES   REMARKS
COLO. SPRINGS  FAIR      30   5  34 NW8       29.77F WCI  22
A. F. ACADEMY  FAIR      28  -8  20 W21G26    29.75S WCI  15
SCHRIEVER AFB  NOT AVBL
CHEYENNE MTN   FAIR      22  20  96 CALM      29.70S
ELLICOTT         N/A    N/A N/A N/A NW6       29.76S
FALCON         FAIR      27   3  35 MISG      29.76S
FORT CARSON    FAIR      26  20  76 S7        29.78R WCI  19
LIMON          FAIR      26  19  74 NW8       29.77F WCI  18
MONUMENT HILL  FAIR      23  12  63 W15G22    29.75F WCI  10
CANON CITY     SUNNY     36   9  32 W18G25    29.80F
WALSENBURG     NOT AVBL
TRINIDAD       FAIR      35   2  24 NW24G30   29.81S WCI  23
$$

COZ042>045-048>051-090-091-241700-
...NORTHEAST COLORADO...

CITY           SKY/WX    TMP DP  RH WIND       PRES   REMARKS
GREELEY ARPT   FAIR      26  23  88 S3        29.81S FOG
AKRON          FAIR      29  17  61 NW18G30   29.76F WCI  16
BURLINGTON     PTSUNNY   29  25  85 NW18      29.79S WCI  16
WRAY           PTSUNNY   30  27  86 MISG      29.79F
YUMA           NOT AVBL
STERLING       FAIR      32  12  43 NW23G29   29.78F WCI  19
HOLYOKE        FAIR      30  25  80 W9        29.78F WCI  22
FORT MORGAN    FAIR      29  19  66 W14       29.80F WCI  18
$$

COZ086-089-092>099-241700-
...SOUTHEAST COLORADO...

CITY           SKY/WX    TMP DP  RH WIND       PRES   REMARKS
PUEBLO         FAIR      29  25  85 SW8       29.83S WCI  21
LA JUNTA       FAIR      31  26  82 W12       29.84S WCI  22
LAMAR          CLOUDY    29  26  89 W12       29.83S WCI  19
SPRINGFIELD      N/A     29  28  96 NW13      29.81R WCI  19
$$




USA.gov is the U.S. government's official web portal to all federal, state and local government web resources and services.